Weather reports worldwide

Advertisment
Anniston, al, United States of America (2072043): temperature & dewpoint: 08.08.2020 02:00:00 - 14.08.2020 02:00:00 (CDT)Anniston, al, United States of America (2072043): wind speed: 08.08.2020 02:00:00 - 14.08.2020 02:00:00 (CDT)Anniston, al, United States of America (2072043): wind direction: 08.08.2020 02:00:00 - 14.08.2020 02:00:00 (CDT)Anniston, al, United States of America (2072043): reduced air pressure: 08.08.2020 02:00:00 - 14.08.2020 02:00:00 (CDT)Anniston, al, United States of America (2072043): visibility: 08.08.2020 02:00:00 - 14.08.2020 02:00:00 (CDT)Anniston, al, United States of America (2072043): precipitation: 08.08.2020 02:00:00 - 14.08.2020 02:00:00 (CDT)
Date & Time tt [°C] td [°C] ff [km/h] ff [kn] dd ppp [hPa] vv [km] rr [mm]
14.08.2020 02:00:00 23,3 22,2 0 0 N 1014,1 16 -
14.08.2020 01:00:00 22,8 21,7 0 0 N 1014,3 11 -
14.08.2020 00:00:00 23,9 22,2 0 0 N 1014,5 16 -
13.08.2020 23:00:00 23,9 22,2 5 3 N 1014,3 16 -
13.08.2020 22:00:00 24,4 22,2 0 0 N 1014,9 16 -
13.08.2020 21:00:00 24,4 22,8 5 3 ENE 1014,4 16 -
13.08.2020 20:00:00 25,0 22,8 0 0 N 1013,6 16 0,0
13.08.2020 19:00:00 25,0 21,7 0 0 N 1013,7 16 20,3
13.08.2020 18:00:00 25,0 21,1 29 16 W 1012,8 0,8 11,2
13.08.2020 17:00:00 33,9 22,8 8 4 - 1012,1 16 -
13.08.2020 16:00:00 33,3 22,8 11 6 S 1012,0 16 -
13.08.2020 15:00:00 33,9 21,7 5 3 - 1012,6 16 -
13.08.2020 14:00:00 33,9 22,8 8 4 SW 1014,0 16 -
13.08.2020 13:00:00 32,2 22,2 0 0 N 1015,4 16 -
13.08.2020 12:00:00 31,7 23,3 8 4 - 1016,4 16 -
13.08.2020 11:00:00 29,4 22,2 8 4 WSW 1016,7 16 -
13.08.2020 10:00:00 27,8 22,2 0 0 N 1017,3 16 -
13.08.2020 09:00:00 25,6 22,2 0 0 N 1017,2 16 -
13.08.2020 08:00:00 23,9 22,2 8 4 SSE 1017,4 16 -
13.08.2020 07:00:00 21,7 21,1 0 0 N 1016,8 16 -
13.08.2020 06:00:00 21,7 20,6 5 3 N 1016,4 16 -
13.08.2020 05:00:00 21,7 21,1 0 0 N 1016,0 15 -
13.08.2020 04:00:00 21,7 21,1 0 0 N 1015,7 15 -
13.08.2020 03:00:00 21,7 21,1 0 0 N 1015,8 10 -
13.08.2020 02:00:00 21,7 21,1 8 4 ENE 1015,8 11 -
13.08.2020 01:00:00 22,2 21,1 0 0 N 1015,6 11 -
13.08.2020 00:00:00 22,2 21,1 0 0 N 1016,1 6 -
12.08.2020 23:00:00 22,8 21,1 0 0 N 1016,4 16 -
12.08.2020 22:00:00 22,8 21,1 5 3 SSW 1016,1 16 -
12.08.2020 21:00:00 22,8 21,7 0 0 N 1015,8 13 -
12.08.2020 20:00:00 23,9 22,2 0 0 N 1015,4 16 -
12.08.2020 19:00:00 24,4 22,2 0 0 N 1015,2 16 -
12.08.2020 18:00:00 24,4 21,1 0 0 N 1014,7 16 0,3
12.08.2020 17:00:00 23,3 21,7 5 3 S 1015,0 15 0,3
12.08.2020 16:00:00 24,4 22,2 16 9 WSW 1015,1 16 0,0
12.08.2020 15:00:00 23,9 21,7 5 3 WSW 1015,7 10 5,1
12.08.2020 14:00:00 24,4 21,1 9 5 SW 1016,1 2,8 2,5
12.08.2020 13:00:00 26,1 21,1 21 11 ESE 1015,1 13 4,3
12.08.2020 12:00:00 33,3 23,3 5 3 - 1015,8 10 -
12.08.2020 11:00:00 31,1 23,9 8 4 S 1016,4 16 -
12.08.2020 10:00:00 30,6 23,3 5 3 - 1016,4 16 -
12.08.2020 09:00:00 27,8 22,8 0 0 N 1016,5 16 -
12.08.2020 08:00:00 25,6 22,2 8 4 SW 1016,8 16 -
12.08.2020 07:00:00 23,3 21,7 0 0 N 1016,2 16 -
12.08.2020 06:00:00 22,8 21,1 8 4 SW 1015,8 15 -
12.08.2020 05:00:00 22,8 21,7 0 0 N 1014,7 16 -
12.08.2020 04:00:00 23,9 21,7 0 0 N 1014,5 16 -
12.08.2020 03:00:00 24,4 21,7 0 0 N 1015,0 16 -
12.08.2020 02:00:00 24,4 21,7 5 3 WSW 1015,5 16 -
12.08.2020 01:00:00 25,0 22,2 13 7 SW 1016,2 16 -
12.08.2020 00:00:00 25,6 22,2 13 7 WSW 1016,2 16 -
11.08.2020 23:00:00 25,0 22,2 8 4 W 1015,7 16 -
11.08.2020 22:00:00 26,1 22,2 0 0 N 1015,0 16 -
11.08.2020 21:00:00 26,7 22,2 9 5 WSW 1015,0 16 -
11.08.2020 20:00:00 27,8 22,8 8 4 SW 1014,2 16 -
11.08.2020 19:00:00 30,6 22,2 0 0 N 1013,5 16 -
11.08.2020 18:00:00 31,7 21,1 0 0 N 1013,5 16 -
11.08.2020 17:00:00 33,3 19,4 5 3 N 1013,3 16 -
11.08.2020 16:00:00 32,2 18,3 29 16 N 1013,6 16 -
11.08.2020 15:00:00 34,4 22,2 15 8 WNW 1013,8 10 -
11.08.2020 14:00:00 33,3 23,3 15 8 WSW 1014,9 16 -
11.08.2020 13:00:00 32,8 23,3 5 3 - - 16 -
11.08.2020 12:00:00 30,0 23,3 8 4 S - 16 -
11.08.2020 11:00:00 28,3 22,2 9 5 SSW - 16 -
11.08.2020 10:00:00 27,8 22,2 0 0 N - 16 -
11.08.2020 09:00:00 26,1 22,2 0 0 N - 16 -
11.08.2020 08:00:00 25,0 21,7 0 0 N - 16 -
11.08.2020 07:00:00 24,4 21,1 16 9 NW - 16 -
11.08.2020 06:00:00 22,8 21,7 0 0 N - 16 -
11.08.2020 05:00:00 22,8 21,1 5 3 SW - 16 -
11.08.2020 04:00:00 22,8 21,7 0 0 N - 16 -
11.08.2020 03:00:00 22,2 21,1 0 0 N - 15 -
11.08.2020 02:00:00 22,8 21,1 5 3 SW - 16 -
11.08.2020 01:00:00 - - 0 0 N - 10 -
11.08.2020 00:00:00 - - - - - - - -
10.08.2020 23:00:00 - - - - - - - -
10.08.2020 22:00:00 - - - - - - - -
10.08.2020 21:00:00 - - - - - - - -
10.08.2020 20:00:00 - - - - - - - -
10.08.2020 19:00:00 - - - - - - - -
10.08.2020 18:00:00 - - - - - - - -
10.08.2020 17:00:00 - - - - - - - -
10.08.2020 16:00:00 - - - - - - - -
10.08.2020 15:00:00 - - 11 6 SW - 10 -
10.08.2020 14:00:00 - - - - - - - -
10.08.2020 13:00:00 - - - - - - - -
10.08.2020 12:00:00 33,9 22,2 11 6 SW 1018,2 15 -
10.08.2020 11:00:00 32,2 22,8 8 4 SSW 1018,9 16 -
10.08.2020 10:00:00 30,0 22,2 11 6 SW 1018,9 16 -
10.08.2020 09:00:00 28,3 22,8 5 3 WSW 1018,8 16 -
10.08.2020 08:00:00 25,0 21,7 0 0 N 1018,7 16 -
10.08.2020 07:00:00 22,2 21,1 0 0 N 1018,7 11 -
10.08.2020 06:00:00 22,2 21,1 0 0 N 1018,2 15 -
10.08.2020 05:00:00 22,2 20,6 0 0 N 1017,9 16 -
10.08.2020 04:00:00 23,3 21,1 0 0 N 1017,9 16 -
10.08.2020 03:00:00 23,9 21,1 0 0 N 1017,7 16 -
10.08.2020 02:00:00 23,9 21,1 0 0 N 1018,1 16 -
10.08.2020 01:00:00 24,4 21,7 5 3 E 1018,5 16 -
10.08.2020 00:00:00 25,6 21,7 0 0 N 1018,6 16 -
09.08.2020 23:00:00 25,6 21,7 8 4 NE 1018,6 16 -
09.08.2020 22:00:00 25,6 21,7 0 0 N 1018,6 16 -
09.08.2020 21:00:00 27,8 20,6 0 0 N 1018,2 16 -
09.08.2020 20:00:00 29,4 20,6 5 3 ENE 1017,8 16 -
09.08.2020 19:00:00 33,3 18,9 5 3 N 1017,2 16 -
09.08.2020 18:00:00 35,0 18,3 11 6 W 1016,9 16 -
09.08.2020 17:00:00 35,0 18,9 15 8 SSW 1016,8 16 -
09.08.2020 16:00:00 35,6 20,0 15 8 W 1017,1 16 -
09.08.2020 15:00:00 35,6 19,4 5 3 - 1017,7 16 -
09.08.2020 14:00:00 35,6 20,0 11 6 SW 1018,5 16 -
09.08.2020 13:00:00 33,9 21,1 5 3 - 1019,5 16 -
09.08.2020 12:00:00 33,3 20,6 11 6 SW 1020,1 16 -
09.08.2020 11:00:00 32,2 21,7 9 5 WSW 1020,6 16 -
09.08.2020 10:00:00 30,0 21,7 5 3 W 1020,8 16 -
09.08.2020 09:00:00 27,8 22,2 8 4 SW 1021,0 16 -
09.08.2020 08:00:00 25,0 21,7 0 0 N 1021,0 15 -
09.08.2020 07:00:00 22,8 21,1 0 0 N 1020,5 11 -
09.08.2020 06:00:00 22,2 20,6 0 0 N 1020,1 15 -
09.08.2020 05:00:00 22,2 21,1 0 0 N 1019,5 13 -
09.08.2020 04:00:00 22,8 21,1 0 0 N 1019,3 15 -
09.08.2020 03:00:00 23,3 21,7 0 0 N 1019,5 15 -
09.08.2020 02:00:00 23,9 21,7 0 0 N 1019,4 16 -
09.08.2020 01:00:00 24,4 22,2 0 0 N 1019,5 16 -
09.08.2020 00:00:00 23,9 22,2 0 0 N 1019,7 16 -
08.08.2020 23:00:00 25,0 22,2 0 0 N 1019,6 16 -
08.08.2020 22:00:00 25,6 21,7 0 0 N 1019,2 16 -
08.08.2020 21:00:00 26,1 21,7 0 0 N 1018,7 16 -
08.08.2020 20:00:00 28,3 21,1 5 3 SSE 1018,5 16 -
08.08.2020 19:00:00 31,7 21,1 0 0 N 1018,2 16 -
08.08.2020 18:00:00 33,9 19,4 5 3 - 1018,1 16 -
08.08.2020 17:00:00 34,4 18,9 11 6 WSW 1017,7 16 -
08.08.2020 16:00:00 33,9 18,3 0 0 N 1017,7 16 -
08.08.2020 15:00:00 34,4 19,4 11 6 WSW 1018,6 16 -
08.08.2020 14:00:00 33,9 19,4 8 4 WSW 1019,1 16 -
08.08.2020 13:00:00 32,8 20,0 8 4 - 1019,8 16 -
08.08.2020 12:00:00 32,2 19,4 0 0 N 1020,2 16 -
08.08.2020 11:00:00 31,7 21,7 11 6 - 1020,3 16 -
08.08.2020 10:00:00 28,9 21,7 0 0 N 1020,5 16 -
08.08.2020 09:00:00 26,7 22,2 5 3 ENE 1020,4 16 -
08.08.2020 08:00:00 23,3 21,1 13 7 WNW 1020,4 10 -
08.08.2020 07:00:00 22,2 21,1 0 0 N 1020,1 8 -
08.08.2020 06:00:00 21,1 20,0 0 0 N 1019,5 10 -
08.08.2020 05:00:00 21,7 20,6 5 3 ESE 1018,9 10 -
08.08.2020 04:00:00 22,2 21,1 8 4 E 1018,6 11 -
08.08.2020 03:00:00 22,8 21,1 0 0 N 1018,2 11 -
08.08.2020 02:00:00 22,8 21,7 5 3 ENE 1018,4 13 -

tt = temperature
td = dewpoint
ff = wind speed
dd = wind direction
ppp = reduced air pressure
vv = visibility
rr = precipitation

Next stations